Flag for U.S.A. Weather past 2 weeks in Everett, Washington, U.S.A.

Now
51 °F

Sunny.


Feels Like: 51 °F
Forecast: 41 / 61 °F
Wind: 3 mph from North

Location: Snohomish County Airport

Current Time: Apr 25, 2015 at 7:25:13 PM

Latest Report: Apr 25, 2015 at 6:53 PM


Visibility: 10 mi

Pressure: 30.05 "Hg

Humidity: 59%

Dew point: 37 °F

Location of EverettLocation

Historic Weather in Everett — Graph

°F

Everett temperature yesterday

Maximum temperature yesterday: 53 °F (at 12:53 PM)
Minimum temperature yesterday: 43 °F (at 3:53 AM)
Average temperature yesterday: 47 °F

Past Weeks' High & Low Weather Summary

 TemperatureHumidityPressure
High68 °F (Apr 20, 2:53 PM)97% (Apr 17, 3:53 AM)30.56 "Hg (Apr 17, 3:53 AM)
Low38 °F (Apr 14, 3:53 AM)40% (Apr 15, 3:53 PM)29.74 "Hg (Apr 24, 4:53 AM)
Average49 °F71%30.10 "Hg
* Reported Apr 10 5:53 PM — Apr 25 5:53 PM, Everett, Weather by CustomWeather, © 2015

Note: Actual official high and low records may vary slightly from our data, if they occured in-between our weather recording intervals... More about our weather records

Advertising

Everett weather history for previous 24 hours

 ConditionsComfort  
Time TempWeatherWind HumidityBarometerVisibility
5:53 PM
Sat, Apr 25
53 °FSunny.3 mph55%30.03 "Hg10 mi
4:53 PM53 °FScattered clouds.5 mph56%30.03 "Hg10 mi
3:53 PM53 °FBroken clouds.3 mph59%30.02 "Hg10 mi
2:53 PM51 °FScattered clouds.6 mph63%30.01 "Hg10 mi
1:53 PM50 °FBroken clouds.6 mph63%30.01 "Hg10 mi
12:53 PM46 °FLight rain. Broken clouds.8 mph77%30.01 "Hg10 mi
11:53 AM48 °FBroken clouds.3 mph77%30.00 "Hg10 mi
11:00 AM46 °FLight rain. More clouds than sun.5 mph71%29.99 "Hg10 mi
9:53 AM46 °FBroken clouds.6 mph79%29.97 "Hg10 mi
8:53 AM44 °FCloudy.No wind82%29.97 "Hg10 mi
7:53 AM43 °FMostly cloudy.8 mph86%29.95 "Hg10 mi
6:53 AM41 °FPassing clouds.No wind86%29.93 "Hg10 mi
5:53 AM41 °FOvercast.5 mph89%29.92 "Hg10 mi
4:53 AM41 °FOvercast.3 mph89%29.91 "Hg10 mi
3:53 AM41 °FOvercast.3 mph93%29.91 "Hg10 mi
2:53 AM43 °FOvercast.No wind82%29.90 "Hg10 mi
1:53 AM42 °FLight rain. Mostly cloudy.3 mph89%29.89 "Hg10 mi
12:53 AM43 °FLight rain. Overcast.6 mph86%29.90 "Hg9 mi
11:53 PM
Fri, Apr 24
43 °FLight rain. Mostly cloudy.5 mph89%29.89 "Hg10 mi
10:53 PM44 °FLight rain. Mostly cloudy.6 mph82%29.88 "Hg4 mi
9:53 PM45 °FLight rain. Mostly cloudy.5 mph80%29.86 "Hg8 mi
8:53 PM48 °FBroken clouds.9 mph71%29.84 "Hg10 mi
7:53 PM50 °FPassing clouds.12 mph66%29.82 "Hg10 mi
Weather by CustomWeather, © 2015

See weather overviewHow to use our weather pages